DW6706 Weather Reports


time (UTC)temp
F
wind
direction
speed
knots
gust
knots
rain 1hr
in
rain 24hr
in
rain mn
in
humidity
%
barometer
mb
20260504222534 80 5 0.0 1.7 0.00 0.00 0.00 71 1010.0
20260504221533 81 85 0.0 4.3 0.00 0.00 0.00 69 1010.1
20260504220533 81 72 0.0 1.7 0.00 0.00 0.00 68 1010.2
20260504215533 81 57 0.0 0.0 0.00 0.00 0.00 67 1010.2
20260504214534 82 56 0.0 0.9 0.00 0.00 0.00 67 1010.4
20260504212533 82 78 0.0 3.5 0.00 0.00 0.00 64 1010.6
20260504211534 82 345 0.9 3.5 0.00 0.00 0.00 66 1010.7
20260504210533 82 251 0.0 5.2 0.00 0.00 0.00 66 1010.9
20260504205533 82 338 0.0 1.7 0.00 0.00 0.00 65 1011.0
20260504204533 82 315 0.0 5.2 0.00 0.00 0.00 66 1011.2
20260504203533 82 17 0.9 3.5 0.00 0.00 0.00 67 1011.2
20260504202533 82 87 0.0 1.7 0.00 0.00 0.00 66 1011.4
20260504201534 82 124 0.0 1.7 0.00 0.00 0.00 66 1011.8
20260504200533 82 275 0.9 4.3 0.00 0.00 0.00 66 1011.9
20260504195533 81 35 0.0 1.7 0.00 0.00 0.00 67 1012.1
20260504194533 82 340 0.9 1.7 0.00 0.00 0.00 65 1012.3
20260504193533 82 107 0.0 6.1 0.00 0.00 0.00 64 1012.3
20260504192533 81 42 0.0 4.3 0.00 0.00 0.00 65 1012.4
20260504191533 81 320 0.0 1.7 0.00 0.00 0.00 67 1012.6
20260504190533 81 16 0.9 1.7 0.00 0.00 0.00 67 1012.9
20260504184533 80 321 1.7 5.2 0.00 0.00 0.00 63 1013.1
20260504182533 80 257 0.9 6.1 0.00 0.00 0.00 66 1013.2
20260504181533 79 326 2.6 2.6 0.00 0.00 0.00 67 1013.2
20260504180533 79 5 1.7 7.8 0.00 0.00 0.00 68 1013.4
20260504175533 78 98 0.0 3.5 0.00 0.00 0.00 68 1013.6
20260504173533 78 69 0.9 2.6 0.00 0.00 0.00 69 1013.8
20260504172533 78 88 0.0 7.8 0.00 0.00 0.00 68 1013.9
20260504171533 78 57 2.6 4.3 0.00 0.00 0.00 69 1014.1
20260504170533 77 61 0.9 5.2 0.00 0.00 0.00 67 1014.3
20260504150533 70 273 0.0 1.7 0.00 0.00 0.00 79 1015.3
20260504140533 62 69 0.0 0.9 0.00 0.00 0.00 92 1015.2
20260504130533 57 71 0.0 0.0 0.00 0.00 0.00 93 1015.0
20260504100533 57 71 0.0 0.0 0.00 0.00 0.00 90 1015.0
20260504081532 58 71 0.0 0.0 0.00 0.00 0.00 89 1015.5
20260504050532 60 71 0.0 0.0 0.00 0.00 0.00 82 1017.6
20260504045532 61 71 0.0 0.0 0.00 0.00 0.00 82 1017.6
20260504044532 61 71 0.0 0.0 0.00 0.00 0.00 81 1017.7
20260504043532 61 71 0.0 0.0 0.00 0.00 0.00 81 1017.8
20260504041532 62 71 0.0 0.0 0.00 0.00 0.00 80 1017.7
20260504035532 63 71 0.0 0.0 0.00 0.00 0.00 78 1017.8
20260504034532 63 71 0.0 0.0 0.00 0.00 0.00 77 1017.8
20260504032532 64 71 0.0 0.0 0.00 0.00 0.00 77 1017.7
20260504031532 64 71 0.0 0.0 0.00 0.00 0.00 76 1017.7
20260504030532 64 71 0.0 0.0 0.00 0.00 0.00 78 1017.5
20260504025532 65 71 0.0 0.0 0.00 0.00 0.00 77 1017.3
20260504024532 65 71 0.0 0.0 0.00 0.00 0.00 77 1017.1
20260504023532 65 71 0.0 0.0 0.00 0.00 0.00 76 1017.2
20260504022532 66 71 0.0 0.0 0.00 0.00 0.00 75 1017.2
20260504021532 66 71 0.0 0.0 0.00 0.00 0.00 72 1017.1
20260504020532 66 71 0.0 0.0 0.00 0.00 0.00 75 1017.0
20260504015532 67 71 0.0 0.0 0.00 0.00 0.00 73 1016.9
20260504012532 69 71 0.0 0.0 0.00 0.00 0.00 65 1016.6
20260504011532 70 71 0.0 0.0 0.00 0.00 0.00 63 1016.5
20260504010532 71 71 0.0 0.0 0.00 0.00 0.00 62 1016.5
20260504004531 73 71 0.0 0.0 0.00 0.00 0.00 58 1016.6
20260504003532 74 71 0.0 0.0 0.00 0.00 0.00 57 1016.6
20260504002531 75 71 0.0 0.0 0.00 0.00 0.00 58 1016.7
20260504001532 76 71 0.0 0.0 0.00 0.00 0.00 57 1016.7
20260504000532 77 71 0.0 0.0 0.00 0.00 0.00 60 1016.6
20260503235532 78 71 0.0 0.9 0.00 0.00 0.00 59 1016.7
20260503234532 79 32 0.0 0.9 0.00 0.00 0.00 53 1016.7
20260503233531 80 32 0.0 0.9 0.00 0.00 0.00 53 1016.7
20260503232532 81 32 0.0 1.7 0.00 0.00 0.00 47 1016.7
20260503231532 81 32 0.0 0.9 0.00 0.00 0.00 47 1016.9
20260503230532 81 30 0.0 0.9 0.00 0.00 0.00 50 1016.9
20260503225532 81 30 0.0 0.9 0.00 0.00 0.00 47 1016.9
20260503224532 81 30 0.0 1.7 0.00 0.00 0.00 49 1017.0